Time,TemperatureF,DewpointF,PressureIn,WindDirection,WindDirectionDegrees,WindSpeedMPH,WindSpeedGustMPH,Humidity,HourlyPrecipIn,Conditions,Clouds,dailyrainin,SoftwareType,DateUTC
2013-04-01 00:03:00,50.2,42.6,29.96,West,270,1.8,4.0,75,0.00,,,0.00,WUHU216HW,2013-04-01 07:03:00,
2013-04-01 00:08:00,50.0,43.1,29.96,WSW,248,1.3,4.7,77,0.00,,,0.00,WUHU216HW,2013-04-01 07:08:00,
2013-04-01 00:13:00,49.7,43.0,29.96,WSW,248,1.3,4.7,78,0.00,,,0.00,WUHU216HW,2013-04-01 07:13:00,
2013-04-01 00:18:00,49.5,42.8,29.97,WSW,248,1.3,5.1,78,0.00,,,0.00,WUHU216HW,2013-04-01 07:18:00,
2013-04-01 00:23:00,49.3,42.7,29.97,WSW,248,2.5,5.1,78,0.00,,,0.00,WUHU216HW,2013-04-01 07:23:00,
2013-04-01 00:28:00,49.1,42.8,29.97,SSW,203,1.1,4.5,79,0.00,,,0.00,WUHU216HW,2013-04-01 07:28:00,
2013-04-01 00:33:00,49.0,42.7,29.97,SW,225,2.5,4.3,79,0.00,,,0.00,WUHU216HW,2013-04-01 07:33:00,
2013-04-01 00:38:00,48.8,42.8,29.97,SW,225,1.1,5.6,80,0.00,,,0.00,WUHU216HW,2013-04-01 07:38:00,
2013-04-01 00:43:00,48.8,42.8,29.97,SE,135,0.4,5.6,80,0.00,,,0.00,WUHU216HW,2013-04-01 07:43:00,
2013-04-01 00:48:00,48.6,43.0,29.97,West,270,2.5,4.0,81,0.00,,,0.00,WUHU216HW,2013-04-01 07:48:00,
2013-04-01 00:53:00,48.6,42.7,29.98,South,180,0.7,4.0,80,0.00,,,0.00,WUHU216HW,2013-04-01 07:53:00,
2013-04-01 00:58:00,48.6,42.7,29.98,WSW,248,1.1,2.7,80,0.00,,,0.00,WUHU216HW,2013-04-01 07:58:00,
2013-04-01 01:03:00,48.6,43.0,29.98,WSW,248,3.4,3.4,81,0.00,,,0.00,WUHU216HW,2013-04-01 08:03:00,
2013-04-01 01:08:00,48.6,43.3,29.98,WSW,248,2.5,3.4,82,0.00,,,0.00,WUHU216HW,2013-04-01 08:08:00,
2013-04-01 01:13:00,48.6,43.3,29.98,WSW,248,2.5,4.7,82,0.00,,,0.00,WUHU216HW,2013-04-01 08:13:00,
2013-04-01 01:18:00,48.6,43.3,29.98,WSW,248,0.2,4.7,82,0.00,,,0.00,WUHU216HW,2013-04-01 08:18:00,
2013-04-01 01:23:00,48.8,43.5,29.98,WSW,248,2.0,2.9,82,0.00,,,0.00,WUHU216HW,2013-04-01 08:23:00,
2013-04-01 01:28:00,48.8,43.5,29.98,SSW,203,0.2,4.9,82,0.00,,,0.00,WUHU216HW,2013-04-01 08:28:00,
2013-04-01 01:33:00,48.8,43.8,29.99,WSW,248,1.8,4.9,83,0.00,,,0.00,WUHU216HW,2013-04-01 08:33:00,
2013-04-01 01:38:00,48.8,43.8,29.99,WSW,248,3.4,6.9,83,0.00,,,0.00,WUHU216HW,2013-04-01 08:38:00,
2013-04-01 01:43:00,48.8,43.8,29.99,West,270,2.7,6.9,83,0.00,,,0.00,WUHU216HW,2013-04-01 08:43:00,
2013-04-01 01:48:00,49.0,44.0,29.99,SW,225,4.3,4.7,83,0.00,,,0.00,WUHU216HW,2013-04-01 08:48:00,
2013-04-01 01:53:00,49.0,44.0,29.99,WSW,248,1.3,6.3,83,0.00,,,0.00,WUHU216HW,2013-04-01 08:53:00,
2013-04-01 01:58:00,49.0,44.0,29.99,SW,225,2.0,6.3,83,0.00,,,0.00,WUHU216HW,2013-04-01 08:58:00,
2013-04-01 02:03:00,49.0,44.0,29.99,WSW,248,1.6,6.0,83,0.00,,,0.00,WUHU216HW,2013-04-01 09:03:00,
2013-04-01 02:08:00,49.0,44.0,29.99,WSW,248,3.4,3.8,83,0.00,,,0.00,WUHU216HW,2013-04-01 09:08:00,
2013-04-01 02:13:00,49.0,44.0,29.99,West,270,1.1,3.8,83,0.00,,,0.00,WUHU216HW,2013-04-01 09:13:00,
2013-04-01 02:18:00,49.0,44.0,29.99,WSW,248,2.9,4.7,83,0.00,,,0.00,WUHU216HW,2013-04-01 09:18:00,
2013-04-01 02:23:00,49.0,44.0,29.99,WSW,248,1.1,4.7,83,0.00,,,0.00,WUHU216HW,2013-04-01 09:23:00,
2013-04-01 02:29:00,49.0,44.3,29.99,WSW,248,5.4,5.4,84,0.00,,,0.00,WUHU216HW,2013-04-01 09:29:00,
2013-04-01 02:34:00,49.0,44.0,29.99,SW,225,0.7,5.4,83,0.00,,,0.00,WUHU216HW,2013-04-01 09:34:00,
2013-04-01 02:39:00,49.0,44.0,29.99,WSW,248,2.5,5.4,83,0.00,,,0.00,WUHU216HW,2013-04-01 09:39:00,
2013-04-01 02:44:00,49.0,44.0,29.99,West,270,2.5,3.8,83,0.00,,,0.00,WUHU216HW,2013-04-01 09:44:00,
2013-04-01 02:49:00,49.0,44.0,29.99,West,270,2.2,3.8,83,0.00,,,0.00,WUHU216HW,2013-04-01 09:49:00,
2013-04-01 02:54:00,49.0,44.0,29.99,SSW,203,1.3,3.8,83,0.00,,,0.00,WUHU216HW,2013-04-01 09:54:00,
2013-04-01 02:59:00,49.0,44.0,29.99,SW,225,0.4,3.1,83,0.00,,,0.00,WUHU216HW,2013-04-01 09:59:00,
2013-04-01 03:04:00,49.0,44.0,29.99,WSW,248,1.1,2.7,83,0.00,,,0.00,WUHU216HW,2013-04-01 10:04:00,
2013-04-01 03:09:00,49.0,44.0,29.99,SE,135,0.4,2.7,83,0.00,,,0.00,WUHU216HW,2013-04-01 10:09:00,
2013-04-01 03:14:00,49.0,44.3,29.99,SW,225,2.5,3.4,84,0.00,,,0.00,WUHU216HW,2013-04-01 10:14:00,
2013-04-01 03:19:00,49.0,44.3,29.99,ESE,113,1.1,3.6,84,0.00,,,0.00,WUHU216HW,2013-04-01 10:19:00,
2013-04-01 03:24:00,49.0,44.3,29.99,WSW,248,1.1,3.6,84,0.00,,,0.00,WUHU216HW,2013-04-01 10:24:00,
2013-04-01 03:29:00,49.0,44.3,29.99,WNW,293,2.0,4.0,84,0.00,,,0.00,WUHU216HW,2013-04-01 10:29:00,
2013-04-01 03:34:00,49.0,44.3,29.99,SE,135,1.3,4.0,84,0.00,,,0.00,WUHU216HW,2013-04-01 10:34:00,
2013-04-01 03:39:00,49.0,44.3,29.99,WSW,248,1.6,3.1,84,0.00,,,0.00,WUHU216HW,2013-04-01 10:39:00,
2013-04-01 03:44:00,49.1,44.5,29.99,WSW,248,2.2,2.9,84,0.00,,,0.00,WUHU216HW,2013-04-01 10:44:00,
2013-04-01 03:49:00,49.1,44.5,29.99,SE,135,0.9,2.2,84,0.00,,,0.00,WUHU216HW,2013-04-01 10:49:00,
2013-04-01 03:54:00,49.1,44.5,29.99,SW,225,0.4,2.2,84,0.00,,,0.00,WUHU216HW,2013-04-01 10:54:00,
2013-04-01 03:59:00,49.1,44.5,29.99,SE,135,0.9,1.6,84,0.00,,,0.00,WUHU216HW,2013-04-01 10:59:00,
2013-04-01 04:04:00,49.1,44.5,29.99,WSW,248,1.8,2.7,84,0.00,,,0.00,WUHU216HW,2013-04-01 11:04:00,
2013-04-01 04:09:00,49.1,44.5,29.99,WSW,248,2.5,2.9,84,0.00,,,0.00,WUHU216HW,2013-04-01 11:09:00,
2013-04-01 04:14:00,49.1,44.5,29.99,SW,225,0.7,2.9,84,0.00,,,0.00,WUHU216HW,2013-04-01 11:14:00,
2013-04-01 04:19:00,49.1,44.5,29.99,South,180,0.2,3.1,84,0.00,,,0.00,WUHU216HW,2013-04-01 11:19:00,
2013-04-01 04:24:00,49.1,44.5,29.99,WSW,248,0.4,3.1,84,0.00,,,0.00,WUHU216HW,2013-04-01 11:24:00,
2013-04-01 04:29:00,49.1,44.5,29.99,SW,225,3.1,4.7,84,0.00,,,0.00,WUHU216HW,2013-04-01 11:29:00,
2013-04-01 04:34:00,49.1,44.5,29.99,SW,225,0.4,4.7,84,0.00,,,0.00,WUHU216HW,2013-04-01 11:34:00,
2013-04-01 04:39:00,49.1,44.5,29.99,SE,135,0.9,2.0,84,0.00,,,0.00,WUHU216HW,2013-04-01 11:39:00,
2013-04-01 04:44:00,49.1,44.5,29.99,SW,225,0.4,1.6,84,0.00,,,0.00,WUHU216HW,2013-04-01 11:44:00,
2013-04-01 04:49:00,49.1,44.5,29.99,WSW,248,2.2,2.5,84,0.00,,,0.00,WUHU216HW,2013-04-01 11:49:00,
2013-04-01 04:54:00,49.3,44.7,30.00,SE,135,0.4,2.5,84,0.00,,,0.00,WUHU216HW,2013-04-01 11:54:00,
2013-04-01 04:59:00,49.3,44.7,30.00,SSE,158,0.2,2.2,84,0.00,,,0.00,WUHU216HW,2013-04-01 11:59:00,
2013-04-01 05:04:00,49.1,44.5,30.00,SE,135,0.2,1.8,84,0.00,,,0.00,WUHU216HW,2013-04-01 12:04:00,
2013-04-01 05:09:00,49.3,44.9,29.99,SW,225,0.9,4.0,85,0.00,,,0.00,WUHU216HW,2013-04-01 12:09:00,
2013-04-01 05:14:00,49.3,44.7,29.99,SW,225,0.2,4.0,84,0.00,,,0.00,WUHU216HW,2013-04-01 12:14:00,
2013-04-01 05:19:00,49.1,44.8,29.99,SW,225,2.2,7.6,85,0.00,,,0.00,WUHU216HW,2013-04-01 12:19:00,
2013-04-01 05:24:00,49.3,44.7,29.99,West,270,2.2,7.6,84,0.00,,,0.00,WUHU216HW,2013-04-01 12:24:00,
2013-04-01 05:29:00,49.1,44.8,29.99,WSW,248,0.4,3.4,85,0.00,,,0.00,WUHU216HW,2013-04-01 12:29:00,
2013-04-01 05:34:00,49.1,44.8,29.99,SW,225,0.4,4.5,85,0.00,,,0.00,WUHU216HW,2013-04-01 12:34:00,
2013-04-01 05:39:00,49.1,44.8,30.00,WSW,248,1.1,4.5,85,0.00,,,0.00,WUHU216HW,2013-04-01 12:39:00,
2013-04-01 05:44:00,49.1,44.8,30.00,SW,225,0.4,2.5,85,0.00,,,0.00,WUHU216HW,2013-04-01 12:44:00,
2013-04-01 05:49:00,49.1,44.8,30.00,WSW,248,0.4,4.9,85,0.00,,,0.00,WUHU216HW,2013-04-01 12:49:00,
2013-04-01 05:54:00,49.1,44.8,30.00,SW,225,1.1,5.1,85,0.00,,,0.00,WUHU216HW,2013-04-01 12:54:00,
2013-04-01 05:59:00,49.0,44.7,30.00,SSE,158,0.4,5.1,85,0.00,,,0.00,WUHU216HW,2013-04-01 12:59:00,
2013-04-01 06:04:00,49.0,44.7,30.00,SSW,203,2.5,4.0,85,0.00,,,0.00,WUHU216HW,2013-04-01 13:04:00,
2013-04-01 06:09:00,49.0,44.7,30.00,WSW,248,2.9,4.0,85,0.00,,,0.00,WUHU216HW,2013-04-01 13:09:00,
2013-04-01 06:14:00,49.0,44.7,30.01,SSW,203,2.2,3.1,85,0.00,,,0.00,WUHU216HW,2013-04-01 13:14:00,
2013-04-01 06:19:00,49.0,44.7,30.01,WSW,248,1.3,3.1,85,0.00,,,0.00,WUHU216HW,2013-04-01 13:19:00,
2013-04-01 06:24:00,49.0,44.7,30.01,SSW,203,2.2,2.5,85,0.00,,,0.00,WUHU216HW,2013-04-01 13:24:00,
2013-04-01 06:29:00,49.0,44.7,30.01,SW,225,2.5,3.4,85,0.00,,,0.00,WUHU216HW,2013-04-01 13:29:00,
2013-04-01 06:34:00,49.0,44.7,30.01,SSW,203,1.1,3.4,85,0.00,,,0.00,WUHU216HW,2013-04-01 13:34:00,
2013-04-01 06:39:00,49.0,44.7,30.01,WSW,248,2.0,3.4,85,0.00,,,0.00,WUHU216HW,2013-04-01 13:39:00,
2013-04-01 06:44:00,49.0,44.7,30.01,SSW,203,0.4,4.0,85,0.00,,,0.00,WUHU216HW,2013-04-01 13:44:00,
2013-04-01 06:49:00,49.0,44.7,30.01,WNW,293,0.7,4.0,85,0.00,,,0.00,WUHU216HW,2013-04-01 13:49:00,
2013-04-01 06:54:00,49.0,44.7,30.01,SSW,203,0.7,4.0,85,0.00,,,0.00,WUHU216HW,2013-04-01 13:54:00,
2013-04-01 06:59:00,49.0,44.7,30.02,WSW,248,1.1,4.0,85,0.00,,,0.00,WUHU216HW,2013-04-01 13:59:00,
2013-04-01 07:04:00,49.1,44.8,30.02,SSW,203,2.0,3.4,85,0.00,,,0.00,WUHU216HW,2013-04-01 14:04:00,
2013-04-01 07:09:00,49.1,44.8,30.02,SSW,203,4.0,4.0,85,0.00,,,0.00,WUHU216HW,2013-04-01 14:09:00,
2013-04-01 07:14:00,49.1,45.1,30.02,SSW,203,1.1,4.0,86,0.00,,,0.00,WUHU216HW,2013-04-01 14:14:00,
2013-04-01 07:19:00,49.1,44.8,30.02,SE,135,0.0,2.9,85,0.00,,,0.00,WUHU216HW,2013-04-01 14:19:00,
2013-04-01 07:24:00,49.1,44.8,30.02,ESE,113,0.2,2.2,85,0.00,,,0.00,WUHU216HW,2013-04-01 14:24:00,
2013-04-01 07:29:00,49.3,44.9,30.02,WSW,248,0.4,3.1,85,0.00,,,0.00,WUHU216HW,2013-04-01 14:29:00,
2013-04-01 07:34:00,49.3,44.9,30.02,SSE,158,1.3,3.4,85,0.00,,,0.00,WUHU216HW,2013-04-01 14:34:00,
2013-04-01 07:39:00,49.3,44.9,30.02,SSW,203,0.4,3.8,85,0.00,,,0.00,WUHU216HW,2013-04-01 14:39:00,
2013-04-01 07:44:00,49.3,44.9,30.02,SE,135,1.8,5.4,85,0.00,,,0.00,WUHU216HW,2013-04-01 14:44:00,
2013-04-01 07:49:00,49.3,44.9,30.03,SSW,203,0.0,5.4,85,0.00,,,0.00,WUHU216HW,2013-04-01 14:49:00,
2013-04-01 07:54:00,49.5,45.1,30.03,SW,225,0.4,4.5,85,0.00,,,0.00,WUHU216HW,2013-04-01 14:54:00,
2013-04-01 07:59:00,49.5,45.1,30.03,ESE,113,0.4,2.0,85,0.00,,,0.00,WUHU216HW,2013-04-01 14:59:00,
2013-04-01 08:04:00,49.7,45.6,30.03,SSW,203,0.2,2.5,86,0.00,,,0.00,WUHU216HW,2013-04-01 15:04:00,
2013-04-01 08:09:00,49.7,45.6,30.03,SE,135,0.7,2.5,86,0.00,,,0.00,WUHU216HW,2013-04-01 15:09:00,
2013-04-01 08:14:00,49.9,45.8,30.03,SW,225,1.8,3.4,86,0.00,,,0.00,WUHU216HW,2013-04-01 15:14:00,
2013-04-01 08:19:00,49.9,45.8,30.04,West,270,0.0,3.4,86,0.00,,,0.00,WUHU216HW,2013-04-01 15:19:00,
2013-04-01 08:24:00,50.0,45.9,30.04,WSW,248,4.0,4.0,86,0.00,,,0.00,WUHU216HW,2013-04-01 15:24:00,
2013-04-01 08:29:00,50.0,45.9,30.04,SSW,203,0.0,4.0,86,0.00,,,0.00,WUHU216HW,2013-04-01 15:29:00,
2013-04-01 08:34:00,50.0,45.9,30.04,SSW,203,1.1,4.7,86,0.00,,,0.00,WUHU216HW,2013-04-01 15:34:00,
2013-04-01 08:39:00,50.0,45.9,30.04,SW,225,0.2,4.7,86,0.00,,,0.00,WUHU216HW,2013-04-01 15:39:00,
2013-04-01 08:44:00,50.0,45.9,30.04,SSE,158,1.6,2.7,86,0.00,,,0.00,WUHU216HW,2013-04-01 15:44:00,
2013-04-01 08:50:00,50.0,45.9,30.04,SSE,158,0.2,2.7,86,0.00,,,0.00,WUHU216HW,2013-04-01 15:50:00,
2013-04-01 08:55:00,50.0,45.9,30.04,SW,225,1.6,3.4,86,0.00,,,0.00,WUHU216HW,2013-04-01 15:55:00,
2013-04-01 09:00:00,50.2,46.1,30.04,WSW,248,1.8,3.4,86,0.00,,,0.00,WUHU216HW,2013-04-01 16:00:00,
2013-04-01 09:05:00,50.2,46.1,30.04,ESE,113,0.9,3.4,86,0.00,,,0.00,WUHU216HW,2013-04-01 16:05:00,
2013-04-01 09:10:00,50.2,46.1,30.04,SW,225,2.0,3.8,86,0.00,,,0.00,WUHU216HW,2013-04-01 16:10:00,
2013-04-01 09:15:00,50.4,46.3,30.05,SE,135,0.4,3.8,86,0.00,,,0.00,WUHU216HW,2013-04-01 16:15:00,
2013-04-01 09:20:00,50.6,46.4,30.04,SE,135,1.1,4.9,86,0.00,,,0.00,WUHU216HW,2013-04-01 16:20:00,
2013-04-01 09:25:00,50.6,46.4,30.05,SW,225,1.8,4.9,86,0.00,,,0.00,WUHU216HW,2013-04-01 16:25:00,
2013-04-01 09:30:00,50.4,46.3,30.05,WSW,248,2.5,4.7,86,0.00,,,0.00,WUHU216HW,2013-04-01 16:30:00,
2013-04-01 09:35:00,50.8,46.6,30.05,WSW,248,4.7,4.7,86,0.00,,,0.00,WUHU216HW,2013-04-01 16:35:00,
2013-04-01 09:40:00,50.6,46.4,30.05,WSW,248,2.5,4.7,86,0.00,,,0.00,WUHU216HW,2013-04-01 16:40:00,
2013-04-01 09:45:00,50.8,46.6,30.05,WNW,293,3.6,5.4,86,0.00,,,0.00,WUHU216HW,2013-04-01 16:45:00,
2013-04-01 09:50:00,50.8,46.4,30.05,SW,225,1.1,5.4,85,0.00,,,0.00,WUHU216HW,2013-04-01 16:50:00,
2013-04-01 09:55:00,50.8,46.4,30.05,SE,135,1.1,4.9,85,0.00,,,0.00,WUHU216HW,2013-04-01 16:55:00,
2013-04-01 10:00:00,51.1,46.7,30.05,SW,225,0.9,3.4,85,0.00,,,0.00,WUHU216HW,2013-04-01 17:00:00,
2013-04-01 10:05:00,51.3,46.9,30.05,WSW,248,4.5,5.8,85,0.00,,,0.00,WUHU216HW,2013-04-01 17:05:00,
2013-04-01 10:10:00,51.3,46.9,30.05,SSW,203,3.6,5.8,85,0.00,,,0.00,WUHU216HW,2013-04-01 17:10:00,
2013-04-01 10:15:00,51.7,47.0,30.05,WSW,248,2.9,6.7,84,0.00,,,0.00,WUHU216HW,2013-04-01 17:15:00,
2013-04-01 10:20:00,51.7,47.0,30.06,WSW,248,1.1,6.7,84,0.00,,,0.00,WUHU216HW,2013-04-01 17:20:00,
2013-04-01 10:25:00,51.8,47.2,30.06,SW,225,2.7,5.4,84,0.00,,,0.00,WUHU216HW,2013-04-01 17:25:00,
2013-04-01 10:30:00,52.0,47.4,30.06,SE,135,1.8,3.4,84,0.00,,,0.00,WUHU216HW,2013-04-01 17:30:00,
2013-04-01 10:35:00,52.4,47.7,30.06,South,180,2.0,4.3,84,0.00,,,0.00,WUHU216HW,2013-04-01 17:35:00,
2013-04-01 10:40:00,52.4,47.3,30.06,WSW,248,2.5,5.1,83,0.00,,,0.00,WUHU216HW,2013-04-01 17:40:00,
2013-04-01 10:45:00,52.4,47.3,30.06,SW,225,3.1,5.1,83,0.00,,,0.00,WUHU216HW,2013-04-01 17:45:00,
2013-04-01 10:50:00,52.4,47.3,30.06,SSE,158,0.4,5.4,83,0.00,,,0.00,WUHU216HW,2013-04-01 17:50:00,
2013-04-01 10:55:00,52.6,47.5,30.06,South,180,0.4,5.4,83,0.00,,,0.00,WUHU216HW,2013-04-01 17:55:00,
2013-04-01 11:00:00,52.7,47.7,30.07,WSW,248,2.5,4.0,83,0.00,,,0.00,WUHU216HW,2013-04-01 18:00:00,
2013-04-01 11:05:00,52.9,47.6,30.07,WSW,248,2.9,4.0,82,0.00,,,0.00,WUHU216HW,2013-04-01 18:05:00,
2013-04-01 11:10:00,53.1,47.8,30.07,SW,225,2.2,7.2,82,0.00,,,0.00,WUHU216HW,2013-04-01 18:10:00,
2013-04-01 11:15:00,53.1,47.8,30.07,WSW,248,2.9,7.2,82,0.00,,,0.00,WUHU216HW,2013-04-01 18:15:00,
2013-04-01 11:20:00,53.3,48.0,30.07,SW,225,1.6,5.4,82,0.00,,,0.00,WUHU216HW,2013-04-01 18:20:00,
2013-04-01 11:25:00,53.5,48.2,30.07,SSW,203,2.2,3.4,82,0.00,,,0.00,WUHU216HW,2013-04-01 18:25:00,
2013-04-01 11:30:00,53.5,48.2,30.07,SSW,203,1.3,3.1,82,0.00,,,0.00,WUHU216HW,2013-04-01 18:30:00,
2013-04-01 11:35:00,53.6,48.3,30.07,SW,225,1.8,2.9,82,0.00,,,0.00,WUHU216HW,2013-04-01 18:35:00,
2013-04-01 11:40:00,53.6,48.0,30.07,SSW,203,2.0,5.8,81,0.00,,,0.00,WUHU216HW,2013-04-01 18:40:00,
2013-04-01 11:45:00,53.6,48.0,30.07,SSW,203,3.4,5.8,81,0.00,,,0.00,WUHU216HW,2013-04-01 18:45:00,
2013-04-01 11:50:00,53.8,48.2,30.07,NNW,338,0.4,5.4,81,0.00,,,0.00,WUHU216HW,2013-04-01 18:50:00,
2013-04-01 11:55:00,54.0,48.1,30.07,SW,225,2.0,5.4,80,0.00,,,0.00,WUHU216HW,2013-04-01 18:55:00,
2013-04-01 12:00:00,54.2,48.2,30.07,SW,225,1.6,5.4,80,0.00,,,0.00,WUHU216HW,2013-04-01 19:00:00,
2013-04-01 12:05:00,54.2,48.2,30.08,South,180,4.5,6.9,80,0.00,,,0.00,WUHU216HW,2013-04-01 19:05:00,
2013-04-01 12:10:00,54.2,48.2,30.08,SW,225,3.6,6.9,80,0.00,,,0.00,WUHU216HW,2013-04-01 19:10:00,
2013-04-01 12:15:00,54.4,48.3,30.08,NW,315,1.3,5.8,80,0.00,,,0.00,WUHU216HW,2013-04-01 19:15:00,
2013-04-01 12:20:00,54.5,48.5,30.08,WSW,248,2.5,4.9,80,0.00,,,0.00,WUHU216HW,2013-04-01 19:20:00,
2013-04-01 12:25:00,54.5,48.2,30.07,ESE,113,1.8,6.9,79,0.00,,,0.00,WUHU216HW,2013-04-01 19:25:00,
2013-04-01 12:30:00,54.5,48.2,30.07,NNE,23,0.7,6.9,79,0.00,,,0.00,WUHU216HW,2013-04-01 19:30:00,
2013-04-01 12:35:00,54.9,48.5,30.07,WSW,248,4.0,5.8,79,0.00,,,0.00,WUHU216HW,2013-04-01 19:35:00,
2013-04-01 12:40:00,55.1,48.3,30.07,WSW,248,9.2,9.8,78,0.00,,,0.00,WUHU216HW,2013-04-01 19:40:00,
2013-04-01 12:45:00,55.1,48.3,30.07,SW,225,3.6,9.8,78,0.00,,,0.00,WUHU216HW,2013-04-01 19:45:00,
2013-04-01 12:50:00,55.1,48.3,30.07,WSW,248,1.1,9.2,78,0.00,,,0.00,WUHU216HW,2013-04-01 19:50:00,
2013-04-01 12:55:00,55.3,48.5,30.07,SSE,158,3.1,5.4,78,0.00,,,0.00,WUHU216HW,2013-04-01 19:55:00,
2013-04-01 13:00:00,55.6,49.1,30.07,SE,135,1.6,5.6,79,0.00,,,0.00,WUHU216HW,2013-04-01 20:00:00,
2013-04-01 13:05:00,56.2,49.7,30.07,SE,135,1.6,5.6,79,0.00,,,0.00,WUHU216HW,2013-04-01 20:05:00,
2013-04-01 13:10:00,56.5,49.7,30.07,SE,135,2.2,5.4,78,0.00,,,0.00,WUHU216HW,2013-04-01 20:10:00,
2013-04-01 13:15:00,56.7,49.1,30.07,WSW,248,4.0,5.1,76,0.00,,,0.00,WUHU216HW,2013-04-01 20:15:00,
2013-04-01 13:20:00,56.9,49.3,30.07,SW,225,1.8,5.4,76,0.00,,,0.00,WUHU216HW,2013-04-01 20:20:00,
2013-04-01 13:25:00,57.1,49.5,30.07,SSW,203,0.9,6.7,76,0.00,,,0.00,WUHU216HW,2013-04-01 20:25:00,
2013-04-01 13:30:00,57.4,49.9,30.07,SW,225,0.9,6.7,76,0.00,,,0.00,WUHU216HW,2013-04-01 20:30:00,
2013-04-01 13:35:00,57.4,49.5,30.07,WSW,248,4.3,6.3,75,0.00,,,0.00,WUHU216HW,2013-04-01 20:35:00,
2013-04-01 13:40:00,57.2,49.3,30.07,WSW,248,2.2,6.0,75,0.00,,,0.00,WUHU216HW,2013-04-01 20:40:00,
2013-04-01 13:44:00,57.2,49.3,30.07,SW,225,6.9,7.6,75,0.00,,,0.00,WUHU216HW,2013-04-01 20:44:00,
2013-04-01 13:49:00,56.9,48.2,30.07,South,180,4.9,8.3,73,0.00,,,0.00,WUHU216HW,2013-04-01 20:49:00,
2013-04-01 13:54:00,56.9,48.6,30.07,WSW,248,4.0,8.3,74,0.00,,,0.00,WUHU216HW,2013-04-01 20:54:00,
2013-04-01 13:59:00,57.1,48.8,30.07,SW,225,4.0,9.2,74,0.00,,,0.00,WUHU216HW,2013-04-01 20:59:00,
2013-04-01 14:04:00,57.2,49.0,30.07,ESE,113,2.5,9.2,74,0.00,,,0.00,WUHU216HW,2013-04-01 21:04:00,
2013-04-01 14:09:00,57.6,49.7,30.07,SE,135,1.1,4.7,75,0.00,,,0.00,WUHU216HW,2013-04-01 21:09:00,
2013-04-01 14:14:00,57.6,49.3,30.07,SW,225,4.3,4.7,74,0.00,,,0.00,WUHU216HW,2013-04-01 21:14:00,
2013-04-01 14:19:00,58.0,49.3,30.07,SW,225,4.7,6.3,73,0.00,,,0.00,WUHU216HW,2013-04-01 21:19:00,
2013-04-01 14:24:00,58.0,49.0,30.07,SW,225,6.9,9.2,72,0.00,,,0.00,WUHU216HW,2013-04-01 21:24:00,
2013-04-01 14:29:00,58.1,49.5,30.07,South,180,4.5,9.2,73,0.00,,,0.00,WUHU216HW,2013-04-01 21:29:00,
2013-04-01 14:34:00,58.3,49.3,30.07,WSW,248,4.7,9.2,72,0.00,,,0.00,WUHU216HW,2013-04-01 21:34:00,
2013-04-01 14:39:00,58.3,49.3,30.07,SSW,203,2.5,9.8,72,0.00,,,0.00,WUHU216HW,2013-04-01 21:39:00,
2013-04-01 14:44:00,58.7,49.7,30.07,SW,225,1.1,9.8,72,0.00,,,0.00,WUHU216HW,2013-04-01 21:44:00,
2013-04-01 14:49:00,58.7,49.7,30.07,WSW,248,5.1,5.8,72,0.00,,,0.00,WUHU216HW,2013-04-01 21:49:00,
2013-04-01 14:54:00,58.9,49.9,30.07,ESE,113,4.9,5.8,72,0.00,,,0.00,WUHU216HW,2013-04-01 21:54:00,
2013-04-01 14:59:00,59.2,50.2,30.07,SSW,203,2.0,7.4,72,0.00,,,0.00,WUHU216HW,2013-04-01 21:59:00,
2013-04-01 15:04:00,59.6,50.6,30.07,SSW,203,3.4,7.6,72,0.00,,,0.00,WUHU216HW,2013-04-01 22:04:00,
2013-04-01 15:09:00,60.1,50.8,30.07,WSW,248,3.6,7.6,71,0.00,,,0.00,WUHU216HW,2013-04-01 22:09:00,
2013-04-01 15:14:00,60.3,50.6,30.07,WNW,293,4.7,8.7,70,0.00,,,0.00,WUHU216HW,2013-04-01 22:14:00,
2013-04-01 15:19:00,60.1,50.0,30.07,WSW,248,5.4,8.7,69,0.00,,,0.00,WUHU216HW,2013-04-01 22:19:00,
2013-04-01 15:24:00,60.1,50.0,30.07,WSW,248,4.7,8.5,69,0.00,,,0.00,WUHU216HW,2013-04-01 22:24:00,
2013-04-01 15:29:00,60.3,50.1,30.07,WSW,248,5.6,8.5,69,0.00,,,0.00,WUHU216HW,2013-04-01 22:29:00,
2013-04-01 15:34:00,60.7,50.5,30.07,North,0,3.1,8.5,69,0.00,,,0.00,WUHU216HW,2013-04-01 22:34:00,
2013-04-01 15:39:00,60.5,50.3,30.07,WSW,248,1.1,6.7,69,0.00,,,0.00,WUHU216HW,2013-04-01 22:39:00,
2013-04-01 15:44:00,61.0,50.9,30.07,West,270,1.6,6.5,69,0.00,,,0.00,WUHU216HW,2013-04-01 22:44:00,
2013-04-01 15:49:00,61.4,50.8,30.06,SW,225,4.5,6.5,68,0.00,,,0.00,WUHU216HW,2013-04-01 22:49:00,
2013-04-01 15:54:00,61.2,51.0,30.07,WSW,248,3.6,5.8,69,0.00,,,0.00,WUHU216HW,2013-04-01 22:54:00,
2013-04-01 15:59:00,61.6,50.9,30.06,SW,225,5.4,6.3,68,0.00,,,0.00,WUHU216HW,2013-04-01 22:59:00,
2013-04-01 16:04:00,61.4,50.8,30.06,SW,225,4.7,6.3,68,0.00,,,0.00,WUHU216HW,2013-04-01 23:04:00,
2013-04-01 16:09:00,61.6,51.4,30.06,SW,225,4.7,6.3,69,0.00,,,0.00,WUHU216HW,2013-04-01 23:09:00,
2013-04-01 16:14:00,61.6,51.4,30.06,SE,135,2.9,6.3,69,0.00,,,0.00,WUHU216HW,2013-04-01 23:14:00,
2013-04-01 16:19:00,61.7,51.1,30.06,West,270,4.7,6.3,68,0.00,,,0.00,WUHU216HW,2013-04-01 23:19:00,
2013-04-01 16:24:00,61.7,51.1,30.06,WSW,248,3.1,6.0,68,0.00,,,0.00,WUHU216HW,2013-04-01 23:24:00,
2013-04-01 16:29:00,61.9,51.3,30.06,WSW,248,1.1,6.0,68,0.00,,,0.00,WUHU216HW,2013-04-01 23:29:00,
2013-04-01 16:39:00,62.3,51.6,30.06,ESE,113,0.0,6.0,68,0.00,,,0.00,WUHU216HW,2013-04-01 23:39:00,
2013-04-01 16:44:00,62.3,51.2,30.06,SSW,203,2.7,4.7,67,0.00,,,0.00,WUHU216HW,2013-04-01 23:44:00,
2013-04-01 16:49:00,62.3,51.2,30.06,SSW,203,2.5,6.0,67,0.00,,,0.00,WUHU216HW,2013-04-01 23:49:00,
2013-04-01 16:54:00,62.5,51.3,30.05,ESE,113,1.3,7.8,67,0.00,,,0.00,WUHU216HW,2013-04-01 23:54:00,
2013-04-01 16:59:00,62.5,51.3,30.05,SE,135,2.0,7.8,67,0.00,,,0.00,WUHU216HW,2013-04-01 23:59:00,
2013-04-01 17:04:00,62.5,51.0,30.05,WSW,248,5.8,6.9,66,0.00,,,0.00,WUHU216HW,2013-04-02 00:04:00,
2013-04-01 17:09:00,62.5,51.0,30.06,WSW,248,2.0,6.9,66,0.00,,,0.00,WUHU216HW,2013-04-02 00:09:00,
2013-04-01 17:14:00,62.5,50.5,30.06,SW,225,0.7,8.5,65,0.00,,,0.00,WUHU216HW,2013-04-02 00:14:00,
2013-04-01 17:21:00,62.3,50.3,30.06,WSW,248,6.0,8.9,65,0.00,,,0.00,WUHU216HW,2013-04-02 00:21:00,
2013-04-01 17:26:00,62.3,50.3,30.06,WSW,248,4.7,8.9,65,0.00,,,0.00,WUHU216HW,2013-04-02 00:26:00,
2013-04-01 17:31:00,62.3,50.3,30.06,SSW,203,0.9,8.5,65,0.00,,,0.00,WUHU216HW,2013-04-02 00:31:00,
2013-04-01 18:00:00,61.9,49.6,30.07,WSW,248,3.4,3.4,64,0.00,,,0.00,WUHU216HW,2013-04-02 01:00:00,
2013-04-01 18:05:00,61.6,49.3,30.06,SW,225,2.2,6.3,64,0.00,,,0.00,WUHU216HW,2013-04-02 01:05:00,
2013-04-01 18:10:00,61.6,49.3,30.07,WSW,248,6.0,6.9,64,0.00,,,0.00,WUHU216HW,2013-04-02 01:10:00,
2013-04-01 18:15:00,61.6,49.7,30.07,WSW,248,2.9,6.9,65,0.00,,,0.00,WUHU216HW,2013-04-02 01:15:00,
2013-04-01 18:20:00,61.4,49.2,30.07,SW,225,0.9,6.5,64,0.00,,,0.00,WUHU216HW,2013-04-02 01:20:00,
2013-04-01 18:25:00,61.0,48.4,30.07,SW,225,2.5,7.8,63,0.00,,,0.00,WUHU216HW,2013-04-02 01:25:00,
2013-04-01 18:30:00,60.8,48.6,30.07,SW,225,4.7,7.8,64,0.00,,,0.00,WUHU216HW,2013-04-02 01:30:00,
2013-04-01 18:35:00,60.1,47.5,30.07,WSW,248,5.4,10.5,63,0.00,,,0.00,WUHU216HW,2013-04-02 01:35:00,
2013-04-01 18:40:00,59.8,47.2,30.07,West,270,2.0,10.5,63,0.00,,,0.00,WUHU216HW,2013-04-02 01:40:00,
2013-04-01 18:45:00,59.4,47.2,30.07,WSW,248,4.5,5.4,64,0.00,,,0.00,WUHU216HW,2013-04-02 01:45:00,
2013-04-01 18:50:00,59.0,46.8,30.07,SSW,203,5.4,7.8,64,0.00,,,0.00,WUHU216HW,2013-04-02 01:50:00,
2013-04-01 18:55:00,58.7,46.9,30.07,SW,225,7.2,7.8,65,0.00,,,0.00,WUHU216HW,2013-04-02 01:55:00,
2013-04-01 19:00:00,58.1,46.4,30.07,West,270,1.6,7.2,65,0.00,,,0.00,WUHU216HW,2013-04-02 02:00:00,
2013-04-01 19:05:00,57.8,46.4,30.08,SSW,203,8.3,9.2,66,0.00,,,0.00,WUHU216HW,2013-04-02 02:05:00,
2013-04-01 19:10:00,57.4,46.5,30.07,South,180,6.9,9.2,67,0.00,,,0.00,WUHU216HW,2013-04-02 02:10:00,
2013-04-01 19:15:00,56.9,46.0,30.07,West,270,3.8,8.3,67,0.00,,,0.00,WUHU216HW,2013-04-02 02:15:00,
2013-04-01 19:20:00,56.5,46.1,30.07,SW,225,5.4,6.9,68,0.00,,,0.00,WUHU216HW,2013-04-02 02:20:00,
2013-04-01 19:25:00,56.2,46.2,30.07,SW,225,3.4,6.3,69,0.00,,,0.00,WUHU216HW,2013-04-02 02:25:00,
2013-04-01 19:30:00,56.0,46.0,30.08,WSW,248,1.8,6.7,69,0.00,,,0.00,WUHU216HW,2013-04-02 02:30:00,
2013-04-01 19:35:00,55.4,45.5,30.08,ESE,113,1.8,6.7,69,0.00,,,0.00,WUHU216HW,2013-04-02 02:35:00,
2013-04-01 19:40:00,55.1,45.5,30.08,SW,225,2.5,6.9,70,0.00,,,0.00,WUHU216HW,2013-04-02 02:40:00,
2013-04-01 19:45:00,54.7,45.6,30.08,SW,225,3.8,8.3,71,0.00,,,0.00,WUHU216HW,2013-04-02 02:45:00,
2013-04-01 19:50:00,54.4,45.6,30.08,SW,225,6.9,8.3,72,0.00,,,0.00,WUHU216HW,2013-04-02 02:50:00,
2013-04-01 19:55:00,54.0,45.6,30.08,WSW,248,5.4,6.9,73,0.00,,,0.00,WUHU216HW,2013-04-02 02:55:00,
2013-04-01 20:00:00,53.6,45.5,30.09,WSW,248,5.4,8.5,74,0.00,,,0.00,WUHU216HW,2013-04-02 03:00:00,
2013-04-01 20:05:00,53.5,45.4,30.09,SW,225,3.1,8.5,74,0.00,,,0.00,WUHU216HW,2013-04-02 03:05:00,
2013-04-01 20:10:00,53.1,44.6,30.09,WNW,293,1.8,9.4,73,0.00,,,0.00,WUHU216HW,2013-04-02 03:10:00,
2013-04-01 20:15:00,52.9,44.8,30.09,WSW,248,2.2,9.4,74,0.00,,,0.00,WUHU216HW,2013-04-02 03:15:00,
2013-04-01 20:20:00,52.6,44.9,30.09,South,180,2.5,7.4,75,0.00,,,0.00,WUHU216HW,2013-04-02 03:20:00,
2013-04-01 20:25:00,52.4,44.7,30.09,South,180,2.5,8.3,75,0.00,,,0.00,WUHU216HW,2013-04-02 03:25:00,
2013-04-01 20:30:00,52.2,44.6,30.09,WSW,248,2.2,8.3,75,0.00,,,0.00,WUHU216HW,2013-04-02 03:30:00,
2013-04-01 20:35:00,52.0,44.7,30.09,SSW,203,4.7,7.8,76,0.00,,,0.00,WUHU216HW,2013-04-02 03:35:00,
2013-04-01 20:40:00,51.8,44.9,30.09,SW,225,4.0,9.8,77,0.00,,,0.00,WUHU216HW,2013-04-02 03:40:00,
2013-04-01 20:45:00,51.7,45.0,30.09,SW,225,5.4,9.8,78,0.00,,,0.00,WUHU216HW,2013-04-02 03:45:00,
2013-04-01 20:50:00,51.5,44.8,30.10,SW,225,4.7,11.4,78,0.00,,,0.00,WUHU216HW,2013-04-02 03:50:00,
2013-04-01 20:55:00,51.5,44.8,30.10,WSW,248,7.4,11.4,78,0.00,,,0.00,WUHU216HW,2013-04-02 03:55:00,
2013-04-01 21:00:00,51.3,44.6,30.10,SW,225,2.0,11.4,78,0.00,,,0.00,WUHU216HW,2013-04-02 04:00:00,
2013-04-01 21:05:00,51.1,44.5,30.10,WSW,248,6.3,9.6,78,0.00,,,0.00,WUHU216HW,2013-04-02 04:05:00,
2013-04-01 21:10:00,51.1,44.5,30.10,SSE,158,2.7,6.5,78,0.00,,,0.00,WUHU216HW,2013-04-02 04:10:00,
2013-04-01 21:15:00,50.9,44.3,30.11,SSW,203,4.0,6.3,78,0.00,,,0.00,WUHU216HW,2013-04-02 04:15:00,
2013-04-01 21:20:00,50.8,44.5,30.11,WSW,248,2.7,6.9,79,0.00,,,0.00,WUHU216HW,2013-04-02 04:20:00,
2013-04-01 21:25:00,50.8,44.5,30.11,NNW,338,3.4,8.9,79,0.00,,,0.00,WUHU216HW,2013-04-02 04:25:00,
2013-04-01 21:30:00,50.6,44.6,30.11,SW,225,6.9,8.9,80,0.00,,,0.00,WUHU216HW,2013-04-02 04:30:00,
2013-04-01 21:35:00,50.4,44.5,30.11,WSW,248,1.8,9.4,80,0.00,,,0.00,WUHU216HW,2013-04-02 04:35:00,
2013-04-01 21:40:00,50.4,44.5,30.11,WSW,248,1.6,9.4,80,0.00,,,0.00,WUHU216HW,2013-04-02 04:40:00,
2013-04-01 21:45:00,50.2,44.3,30.11,WSW,248,5.8,7.6,80,0.00,,,0.00,WUHU216HW,2013-04-02 04:45:00,
2013-04-01 21:50:00,50.0,44.1,30.12,West,270,1.8,7.6,80,0.00,,,0.00,WUHU216HW,2013-04-02 04:50:00,
2013-04-01 21:55:00,50.0,44.1,30.12,WNW,293,1.6,6.0,80,0.00,,,0.00,WUHU216HW,2013-04-02 04:55:00,
2013-04-01 22:00:00,50.0,44.1,30.12,SSE,158,1.8,4.5,80,0.00,,,0.00,WUHU216HW,2013-04-02 05:00:00,
2013-04-01 22:05:00,49.9,44.2,30.12,WSW,248,1.1,5.8,81,0.00,,,0.00,WUHU216HW,2013-04-02 05:05:00,
2013-04-01 22:10:00,49.7,43.7,30.12,SSW,203,2.5,5.8,80,0.00,,,0.00,WUHU216HW,2013-04-02 05:10:00,
2013-04-01 22:15:00,49.7,44.4,30.12,WSW,248,3.6,10.1,82,0.00,,,0.00,WUHU216HW,2013-04-02 05:15:00,
2013-04-01 22:20:00,49.5,43.8,30.12,South,180,0.4,10.1,81,0.00,,,0.00,WUHU216HW,2013-04-02 05:20:00,
2013-04-01 22:25:00,49.5,43.8,30.12,SSE,158,1.6,4.3,81,0.00,,,0.00,WUHU216HW,2013-04-02 05:25:00,
2013-04-01 22:30:00,49.3,43.7,30.12,South,180,0.9,5.4,81,0.00,,,0.00,WUHU216HW,2013-04-02 05:30:00,
2013-04-01 22:35:00,49.3,43.7,30.12,ESE,113,0.2,5.4,81,0.00,,,0.00,WUHU216HW,2013-04-02 05:35:00,
2013-04-01 22:40:00,49.3,43.7,30.13,WSW,248,2.0,4.5,81,0.00,,,0.00,WUHU216HW,2013-04-02 05:40:00,
2013-04-01 22:45:00,49.1,43.5,30.13,SSW,203,0.2,4.5,81,0.00,,,0.00,WUHU216HW,2013-04-02 05:45:00,
2013-04-01 22:50:00,49.0,43.7,30.13,West,270,0.9,2.7,82,0.00,,,0.00,WUHU216HW,2013-04-02 05:50:00,
2013-04-01 22:55:00,49.0,43.7,30.13,SW,225,1.6,2.7,82,0.00,,,0.00,WUHU216HW,2013-04-02 05:55:00,
2013-04-01 23:00:00,48.8,43.5,30.13,SE,135,0.4,4.0,82,0.00,,,0.00,WUHU216HW,2013-04-02 06:00:00,
2013-04-01 23:05:00,48.8,43.5,30.13,SSE,158,1.6,4.0,82,0.00,,,0.00,WUHU216HW,2013-04-02 06:05:00,
2013-04-01 23:10:00,48.6,43.3,30.13,SW,225,0.4,4.7,82,0.00,,,0.00,WUHU216HW,2013-04-02 06:10:00,
2013-04-01 23:15:00,48.8,43.5,30.13,SSW,203,0.4,4.7,82,0.00,,,0.00,WUHU216HW,2013-04-02 06:15:00,
2013-04-01 23:20:00,48.8,43.5,30.13,SW,225,3.1,4.5,82,0.00,,,0.00,WUHU216HW,2013-04-02 06:20:00,
2013-04-01 23:25:00,49.0,44.0,30.13,SW,225,1.1,3.6,83,0.00,,,0.00,WUHU216HW,2013-04-02 06:25:00,
2013-04-01 23:30:00,49.1,44.1,30.13,SSW,203,2.5,3.6,83,0.00,,,0.00,WUHU216HW,2013-04-02 06:30:00,
2013-04-01 23:35:00,49.3,44.3,30.13,SW,225,0.7,3.6,83,0.00,,,0.00,WUHU216HW,2013-04-02 06:35:00,
2013-04-01 23:40:00,49.3,44.3,30.13,South,180,1.1,3.4,83,0.00,,,0.00,WUHU216HW,2013-04-02 06:40:00,
2013-04-01 23:45:00,49.3,44.3,30.13,SW,225,1.6,5.1,83,0.00,,,0.00,WUHU216HW,2013-04-02 06:45:00,
2013-04-01 23:50:00,49.5,44.5,30.14,West,270,3.8,8.3,83,0.00,,,0.00,WUHU216HW,2013-04-02 06:50:00,
2013-04-01 23:55:00,49.5,44.5,30.14,SSW,203,6.0,8.3,83,0.00,,,0.00,WUHU216HW,2013-04-02 06:55:00,